Starlink 31363

operational
NORAD ID: 59782 Int'l Des: 2024-093 Owner: SPXS Country: US Constellation: starlink
LEOCIRCULAR

About Starlink 31363

Description loading...

Live Position

Loading 3D Globe...

Upcoming Passes

Altitude History

Altitude vs Time

uPlot chart will show altitude changes over time

Two-Line Element Set

1 59782U 24093A 25354.84470286 -.00001333 00000-0 -38925-4 0 9990
2 59782 43.0008 290.9692 0000683 294.1414 65.9366 15.27587595 90678
Epoch: Dec 20, 2025 • Age: 4 hours

Current Status

Altitude 495.7 km
Velocity 7.62 km/s
Sub-Earth Point -42.54°S, 112.63°E
Launch Date May 18, 2024
Age 1.5 years
Type internet

Technical Details

Classification Payload
Mass 730.00 kg
Dry Mass 700.00 kg
Total Mass 730.00 kg
Length 0.30 m
Diameter 4.10 m
Span 29.00 m
Shape Box + pan
Manufacturer SPXS
Bus Type Starlink V2M
Phase Status In Orbit
Owner/State SPXS/US

Large Constellations

Loading constellations...